TimeMDT,TemperatureF,Dew PointF,Humidity,Sea Level PressureIn,VisibilityMPH,Wind Direction,Wind SpeedMPH,Gust SpeedMPH,PrecipitationIn,Events,Conditions,WindDirDegrees,DateUTC
12:15 AM,33.8,17.6,52,30.24,10.0,NW,9.2,-,N/A,,Clear,320,2012-10-07 06:15:00
12:35 AM,33.8,17.6,52,30.24,10.0,NW,8.1,-,N/A,,Clear,310,2012-10-07 06:35:00
1:15 AM,32.0,15.8,51,30.24,10.0,WNW,9.2,-,N/A,,Clear,300,2012-10-07 07:15:00
1:35 AM,32.0,15.8,51,30.24,10.0,NW,8.1,-,N/A,,Clear,310,2012-10-07 07:35:00
1:55 AM,32.0,15.8,51,30.24,10.0,NW,9.2,-,N/A,,Clear,310,2012-10-07 07:55:00
2:15 AM,32.0,15.8,51,30.25,10.0,NW,9.2,-,N/A,,Clear,310,2012-10-07 08:15:00
2:35 AM,32.0,15.8,51,30.26,10.0,NW,9.2,-,N/A,,Clear,310,2012-10-07 08:35:00
2:55 AM,32.0,15.8,51,30.26,10.0,NW,10.4,16.1,N/A,,Clear,310,2012-10-07 08:55:00
3:15 AM,32.0,15.8,51,30.26,10.0,NW,9.2,-,N/A,,Clear,310,2012-10-07 09:15:00
3:35 AM,32.0,15.8,51,30.26,10.0,NW,8.1,-,N/A,,Clear,320,2012-10-07 09:35:00
3:55 AM,32.0,15.8,51,30.25,10.0,NNW,9.2,-,N/A,,Clear,330,2012-10-07 09:55:00
4:15 AM,32.0,15.8,51,30.25,10.0,NW,8.1,-,N/A,,Clear,320,2012-10-07 10:15:00
4:35 AM,32.0,14.0,48,30.25,10.0,NW,9.2,-,N/A,,Clear,320,2012-10-07 10:35:00
4:55 AM,32.0,14.0,48,30.25,10.0,NW,10.4,-,N/A,,Clear,310,2012-10-07 10:55:00
5:15 AM,32.0,14.0,48,30.24,10.0,NW,9.2,-,N/A,,Clear,310,2012-10-07 11:15:00
5:35 AM,30.2,14.0,51,30.24,10.0,NW,9.2,-,N/A,,Clear,310,2012-10-07 11:35:00
5:55 AM,30.2,14.0,51,30.24,10.0,NW,9.2,-,N/A,,Clear,310,2012-10-07 11:55:00
6:15 AM,30.2,14.0,51,30.24,10.0,NW,8.1,-,N/A,,Clear,320,2012-10-07 12:15:00
6:35 AM,30.2,14.0,51,30.24,10.0,NW,9.2,-,N/A,,Clear,310,2012-10-07 12:35:00
6:55 AM,30.2,14.0,51,30.24,10.0,NW,10.4,-,N/A,,Clear,310,2012-10-07 12:55:00
7:50 AM,28.4,12.2,51,30.24,10.0,NW,11.5,-,N/A,,Clear,310,2012-10-07 13:50:00
8:47 AM,30.2,12.2,47,30.26,10.0,NW,13.8,-,N/A,,Clear,310,2012-10-07 14:47:00
9:47 AM,35.6,12.2,38,30.26,10.0,NW,8.1,-,N/A,,Clear,310,2012-10-07 15:47:00
10:47 AM,42.8,12.2,29,30.25,10.0,NW,4.6,-,N/A,,Clear,310,2012-10-07 16:47:00
11:55 AM,50.0,15.8,26,30.23,10.0,Calm,Calm,-,N/A,,Clear,0,2012-10-07 17:55:00
12:47 PM,51.8,15.8,24,30.21,10.0,East,8.1,-,N/A,,Clear,100,2012-10-07 18:47:00
1:47 PM,55.4,15.8,21,30.19,10.0,ESE,8.1,-,N/A,,Clear,120,2012-10-07 19:47:00
2:47 PM,57.2,15.8,20,30.15,10.0,SE,8.1,-,N/A,,Clear,130,2012-10-07 20:47:00
3:47 PM,59.0,15.8,19,30.13,10.0,SE,9.2,-,N/A,,Clear,130,2012-10-07 21:47:00
4:50 PM,59.0,15.8,19,30.12,10.0,ESE,8.1,-,N/A,,Clear,120,2012-10-07 22:50:00
5:47 PM,59.0,15.8,19,30.11,10.0,ESE,8.1,-,N/A,,Clear,110,2012-10-07 23:47:00
6:47 PM,50.0,21.2,32,30.10,10.0,SE,5.8,-,N/A,,Clear,140,2012-10-08 00:47:00
7:47 PM,44.6,21.2,39,30.10,10.0,Calm,Calm,-,N/A,,Clear,0,2012-10-08 01:47:00
8:47 PM,44.6,15.8,31,30.11,10.0,NW,9.2,-,N/A,,Clear,310,2012-10-08 02:47:00
9:47 PM,42.8,15.8,34,30.12,10.0,WNW,8.1,-,N/A,,Clear,290,2012-10-08 03:47:00
10:47 PM,39.2,15.8,39,30.12,10.0,West,8.1,-,N/A,,Clear,280,2012-10-08 04:47:00
11:15 PM,37.4,15.8,41,30.12,10.0,NW,9.2,-,N/A,,Clear,310,2012-10-08 05:15:00
11:35 PM,37.4,14.0,38,30.12,10.0,WNW,10.4,-,N/A,,Clear,300,2012-10-08 05:35:00
11:55 PM,39.2,14.0,36,30.12,10.0,NW,8.1,-,N/A,,Clear,310,2012-10-08 05:55:00